Lid_Strength_Index
4 5 5 4 4 4 3 3 3 3 3 2 2 2 3 3 2 2 3 3 2 2 2 2 2 1 3 6 8 4 1 1 4 5 6 7 8 8 9 9 9 9 8 8 8 8 9
5 5 5 4 4 3 3 3 3 3 2 2 2 2 3 3 3 2 2 2 2 1 1 1 0 0 4 9 4 3 4 5 4 5 7 6 6 7 9 10 9 8 9 9 9 9 9
5 5 4 4 3 3 3 3 3 2 2 2 2 2 2 2 3 2 2 2 1 1 1 1 0 2 5 6 3 4 3 4 3 3 5 4 4 5 6 8 7 8 9 8 8 9 10
5 5 4 3 3 3 3 3 3 2 2 3 3 2 2 3 3 3 2 2 1 2 1 1 1 2 7 3 2 3 3 4 3 3 4 3 4 5 6 6 7 8 8 10 8 8 8
4 4 3 3 3 3 3 3 3 3 2 3 3 2 2 2 2 2 2 2 1 1 1 1 2 3 7 3 5 4 3 5 4 4 3 4 4 6 6 8 8 8 11 11 10 7 8
4 4 4 3 3 3 3 3 3 3 2 2 2 2 2 2 3 3 2 3 1 3 2 3 4 6 6 7 5 5 4 4 5 5 5 5 5 7 7 9 12 12 12 11 11 9 9
3 3 3 3 3 3 3 3 3 3 3 3 3 2 2 3 3 3 3 3 5 5 4 6 7 7 7 5 4 5 5 5 5 6 8 6 8 10 10 9 9 10 10 11 10 8 10
4 4 4 3 3 3 3 3 3 3 3 3 3 2 2 3 3 3 1 4 4 3 8 6 6 6 5 5 7 6 4 7 7 9 7 8 11 9 9 8 9 9 10 11 10 9 10
3 4 4 4 3 4 3 3 3 3 3 3 3 3 3 3 3 2 2 3 2 2 6 8 6 7 6 6 8 7 6 7 8 9 8 10 10 8 8 9 10 10 11 11 11 9 8
3 3 3 4 3 4 4 3 3 3 3 3 3 3 3 4 4 1 3 1 1 1 8 10 9 7 7 6 8 6 6 7 8 10 9 10 9 9 9 10 9 11 9 9 9 9 12
2 2 3 3 3 3 4 4 3 3 3 3 3 4 4 4 2 4 2 0 -0 2 18 9 9 5 7 8 8 8 5 7 10 10 8 11 10 9 10 10 9 10 7 8 8 9 10
3 2 2 2 2 3 3 4 4 3 3 3 3 4 4 3 1 2 0 0 2 10 18 11 9 9 9 9 9 8 8 7 7 9 8 9 7 8 9 8 8 7 7 8 8 9 14
3 2 2 2 2 3 3 4 4 3 3 3 3 4 4 2 3 0 -1 3 11 17 9 12 11 9 9 10 10 9 9 9 10 11 11 10 9 8 8 9 7 7 10 13 14 16 15
4 3 2 2 2 2 3 3 4 4 4 3 3 4 4 3 0 1 1 7 16 11 11 9 10 10 11 10 10 10 10 10 9 10 10 12 12 10 8 9 11 10 10 14 19 16 14
4 4 3 2 2 2 2 3 3 3 4 3 4 3 4 3 1 1 4 15 15 11 9 11 10 11 11 11 10 10 10 11 10 10 11 12 12 9 9 8 9 10 11 8 14 12 16
5 4 4 3 2 2 2 2 3 3 4 4 4 5 6 2 2 3 7 13 10 9 9 9 12 10 11 11 11 10 11 10 11 10 9 11 13 10 9 8 8 10 8 13 12 19 19
5 5 5 4 4 2 2 2 2 3 3 4 5 8 3 2 3 7 13 10 10 9 9 10 10 11 10 11 10 10 11 10 10 10 9 10 11 11 10 10 12 10 11 12 12 12 17
5 5 5 5 4 4 2 2 2 2 3 4 6 10 2 2 9 7 10 9 9 9 8 9 9 9 10 10 11 10 11 10 8 9 11 10 10 12 12 9 9 9 10 11 15 16 13
6 6 5 5 5 4 3 2 2 2 2 4 7 8 3 4 12 11 9 9 9 9 9 9 10 9 9 10 12 10 10 8 9 9 10 9 11 13 13 10 9 11 10 10 10 11 15
5 5 5 5 5 4 4 4 2 2 2 4 7 12 9 7 7 9 11 10 11 8 8 8 9 8 9 10 9 10 10 9 9 9 10 10 11 12 13 13 11 12 11 10 11 13 12
5 5 5 5 5 5 5 4 2 2 2 4 6 10 8 14 10 9 9 10 11 11 8 8 9 9 10 12 11 11 9 9 9 9 10 9 13 12 12 12 11 12 11 10 11 10 12
5 5 5 5 5 5 4 4 3 2 2 5 11 9 7 9 9 9 10 11 11 10 10 10 10 9 8 10 10 11 10 10 10 9 9 9 12 12 15 12 12 12 11 10 10 10 10
5 5 5 5 4 5 4 4 4 3 2 6 5 5 7 8 9 10 9 10 10 8 8 8 8 8 9 8 8 7 7 7 8 9 10 10 12 14 14 13 13 14 11 10 9 9 9
5 5 5 5 5 4 4 4 3 3 2 4 5 5 8 10 9 10 9 9 9 9 9 8 7 8 6 5 6 6 8 9 9 9 8 10 11 12 13 14 18 10 8 8 9 9 8
4 4 5 5 5 5 4 4 4 3 4 5 3 5 7 10 8 9 9 8 8 8 8 8 7 6 5 7 10 13 13 13 12 10 9 9 10 13 15 15 12 11 10 10 11 10 8
-0 2 3 4 4 4 4 4 4 3 4 5 4 2 5 8 9 7 8 8 8 9 8 8 6 5 6 9 10 14 15 13 16 14 9 9 9 12 14 16 17 11 9 7 8 13 7
-1 -1 -0 1 3 3 4 4 4 3 3 5 6 3 4 8 6 6 8 8 6 7 8 8 8 8 6 9 13 13 13 11 14 15 15 13 12 14 14 14 12 9 8 7 14 11 7
-2 -1 -1 -0 0 1 2 3 3 3 3 4 8 4 3 6 6 5 5 6 7 6 8 7 8 8 8 11 11 11 11 12 12 11 13 13 14 14 13 14 16 7 8 11 8 6 7
-1 -1 -1 -1 -0 0 1 1 2 3 2 3 8 5 1 5 6 3 3 3 4 4 5 6 7 8 7 9 9 8 11 10 11 13 9 13 10 11 11 11 7 6 7 6 6 7 7